Time,TemperatureF,DewpointF,PressureIn,WindDirection,WindDirectionDegrees,WindSpeedMPH,WindSpeedGustMPH,Humidity,HourlyPrecipIn,Conditions,Clouds,dailyrainin,SoftwareType,DateUTC
2013-02-26 00:01:00,42.0,38.0,30.00,ENE,65,3.0,8.0,87,0.00,,,0.12,,2013-02-26 05:01:00,
2013-02-26 00:12:00,42.0,38.0,29.99,NE,35,5.0,9.0,87,0.00,,,0.12,,2013-02-26 05:12:00,
2013-02-26 00:22:00,42.0,38.0,29.99,NE,35,5.0,9.0,87,0.00,,,0.12,,2013-02-26 05:22:00,
2013-02-26 00:32:00,42.0,38.0,29.98,ENE,58,5.0,10.0,87,0.00,,,0.12,,2013-02-26 05:32:00,
2013-02-26 00:43:00,42.0,38.0,29.98,ENE,58,5.0,10.0,87,0.00,,,0.12,,2013-02-26 05:43:00,
2013-02-26 00:52:00,42.0,39.0,29.97,ENE,64,5.0,8.0,88,0.00,,,0.12,,2013-02-26 05:52:00,
2013-02-26 01:02:00,42.0,38.0,29.98,ENE,70,5.0,8.0,87,0.00,,,0.12,,2013-02-26 06:02:00,
2013-02-26 01:11:00,42.0,38.0,29.98,ENE,70,5.0,8.0,87,0.00,,,0.12,,2013-02-26 06:11:00,
2013-02-26 01:21:00,42.0,38.0,29.98,ENE,64,4.0,6.0,87,0.00,,,0.12,,2013-02-26 06:21:00,
2013-02-26 01:32:00,42.0,39.0,29.98,ENE,75,2.0,10.0,88,0.00,,,0.12,,2013-02-26 06:32:00,
2013-02-26 01:42:00,42.0,39.0,29.98,ENE,75,2.0,10.0,88,0.00,,,0.12,,2013-02-26 06:42:00,
2013-02-26 01:52:00,42.0,39.0,29.97,ENE,65,2.0,7.0,89,0.01,,,0.13,,2013-02-26 06:52:00,
2013-02-26 02:01:00,42.0,40.0,29.96,NE,46,4.0,7.0,91,0.01,,,0.13,,2013-02-26 07:01:00,
2013-02-26 02:11:00,42.0,40.0,29.96,NE,46,4.0,7.0,91,0.01,,,0.13,,2013-02-26 07:11:00,
2013-02-26 02:22:00,42.0,40.0,29.94,ENE,58,3.0,7.0,91,0.01,,,0.13,,2013-02-26 07:22:00,
2013-02-26 02:32:00,42.0,40.0,29.93,NE,39,3.0,6.0,91,0.02,,,0.14,,2013-02-26 07:32:00,
2013-02-26 02:42:00,42.0,40.0,29.93,NE,39,3.0,6.0,91,0.02,,,0.14,,2013-02-26 07:42:00,
2013-02-26 02:52:00,41.0,39.0,29.93,ENE,65,3.0,7.0,93,0.02,,,0.15,,2013-02-26 07:52:00,
2013-02-26 03:02:00,41.0,39.0,29.93,NE,50,2.0,6.0,93,0.02,,,0.15,,2013-02-26 08:02:00,
2013-02-26 03:11:00,41.0,39.0,29.91,ENE,75,3.0,7.0,94,0.04,,,0.17,,2013-02-26 08:11:00,
2013-02-26 03:21:00,41.0,39.0,29.91,ENE,75,3.0,7.0,94,0.04,,,0.17,,2013-02-26 08:21:00,
2013-02-26 03:32:00,41.0,39.0,29.90,ENE,57,4.0,9.0,94,0.05,,,0.19,,2013-02-26 08:32:00,
2013-02-26 03:42:00,41.0,39.0,29.90,ENE,57,4.0,9.0,94,0.05,,,0.19,,2013-02-26 08:42:00,
2013-02-26 03:52:00,41.0,39.0,29.89,NE,49,3.0,6.0,94,0.05,,,0.20,,2013-02-26 08:52:00,
2013-02-26 04:02:00,41.0,40.0,29.88,ENE,58,3.0,7.0,95,0.05,,,0.21,,2013-02-26 09:02:00,
2013-02-26 04:11:00,41.0,40.0,29.88,ENE,58,3.0,7.0,95,0.05,,,0.21,,2013-02-26 09:11:00,
2013-02-26 04:21:00,41.0,40.0,29.87,ENE,61,3.0,7.0,95,0.06,,,0.23,,2013-02-26 09:21:00,
2013-02-26 04:32:00,41.0,40.0,29.86,ENE,65,3.0,5.0,95,0.05,,,0.24,,2013-02-26 09:32:00,
2013-02-26 04:43:00,41.0,40.0,29.86,ENE,65,3.0,5.0,95,0.05,,,0.24,,2013-02-26 09:43:00,
2013-02-26 04:52:00,41.0,40.0,29.84,ENE,65,4.0,7.0,95,0.08,,,0.28,,2013-02-26 09:52:00,
2013-02-26 05:01:00,42.0,41.0,29.85,NE,39,3.0,5.0,96,0.09,,,0.30,,2013-02-26 10:01:00,
2013-02-26 05:11:00,42.0,41.0,29.85,NE,39,3.0,5.0,96,0.09,,,0.30,,2013-02-26 10:11:00,
2013-02-26 05:21:00,42.0,41.0,29.82,NE,43,5.0,9.0,96,0.08,,,0.31,,2013-02-26 10:21:00,
2013-02-26 05:32:00,43.0,42.0,29.81,ENE,71,5.0,11.0,96,0.08,,,0.32,,2013-02-26 10:32:00,
2013-02-26 05:42:00,43.0,42.0,29.81,ENE,71,5.0,11.0,96,0.08,,,0.32,,2013-02-26 10:42:00,
2013-02-26 05:52:00,43.0,42.0,29.84,NNE,26,3.0,7.0,96,0.05,,,0.33,,2013-02-26 10:52:00,
2013-02-26 06:01:00,43.0,42.0,29.81,NE,44,4.0,8.0,96,0.06,,,0.36,,2013-02-26 11:01:00,
2013-02-26 06:12:00,43.0,42.0,29.81,NE,44,4.0,8.0,96,0.06,,,0.36,,2013-02-26 11:12:00,
2013-02-26 06:22:00,44.0,43.0,29.81,ENE,65,4.0,10.0,96,0.08,,,0.39,,2013-02-26 11:22:00,
2013-02-26 06:32:00,44.0,43.0,29.80,ENE,58,5.0,8.0,96,0.08,,,0.40,,2013-02-26 11:32:00,
2013-02-26 06:42:00,44.0,43.0,29.80,ENE,58,5.0,8.0,96,0.08,,,0.40,,2013-02-26 11:42:00,
2013-02-26 06:53:00,44.0,43.0,29.80,ENE,77,3.0,9.0,96,0.08,,,0.41,,2013-02-26 11:53:00,
2013-02-26 07:02:00,44.0,43.0,29.78,NE,50,3.0,9.0,96,0.07,,,0.43,,2013-02-26 12:02:00,
2013-02-26 07:11:00,44.0,43.0,29.78,NE,50,3.0,9.0,96,0.07,,,0.43,,2013-02-26 12:11:00,
2013-02-26 07:22:00,44.0,43.0,29.78,ENE,61,3.0,7.0,96,0.09,,,0.48,,2013-02-26 12:22:00,
2013-02-26 07:32:00,45.0,44.0,29.78,NNE,26,1.0,7.0,96,0.16,,,0.56,,2013-02-26 12:32:00,
2013-02-26 07:42:00,45.0,44.0,29.78,NNE,26,1.0,7.0,96,0.16,,,0.56,,2013-02-26 12:42:00,
2013-02-26 07:53:00,45.0,44.0,29.79,ENE,70,2.0,2.0,96,0.21,,,0.62,,2013-02-26 12:53:00,
2013-02-26 08:02:00,45.0,44.0,29.82,WSW,248,0.0,2.0,96,0.26,,,0.69,,2013-02-26 13:02:00,
2013-02-26 08:11:00,45.0,44.0,29.82,WSW,248,0.0,2.0,96,0.26,,,0.69,,2013-02-26 13:11:00,
2013-02-26 08:22:00,45.0,44.0,29.82,West,262,0.0,1.0,96,0.37,,,0.85,,2013-02-26 13:22:00,
2013-02-26 08:32:00,45.0,44.0,29.80,East,84,3.0,4.0,96,0.34,,,0.90,,2013-02-26 13:32:00,
2013-02-26 08:42:00,45.0,44.0,29.80,East,84,3.0,4.0,96,0.34,,,0.90,,2013-02-26 13:42:00,
2013-02-26 08:52:00,45.0,44.0,29.80,ENE,68,2.0,4.0,96,0.31,,,0.93,,2013-02-26 13:52:00,
2013-02-26 09:01:00,45.0,44.0,29.79,ENE,73,2.0,5.0,96,0.26,,,0.95,,2013-02-26 14:01:00,
2013-02-26 09:11:00,45.0,44.0,29.79,ENE,73,2.0,5.0,96,0.26,,,0.95,,2013-02-26 14:11:00,
2013-02-26 09:22:00,45.0,44.0,29.77,ENE,67,3.0,6.0,96,0.12,,,0.97,,2013-02-26 14:22:00,
2013-02-26 09:32:00,45.0,44.0,29.76,ENE,61,4.0,6.0,96,0.10,,,1.00,,2013-02-26 14:32:00,
2013-02-26 09:42:00,45.0,44.0,29.76,ENE,61,4.0,6.0,96,0.10,,,1.00,,2013-02-26 14:42:00,
2013-02-26 09:52:00,46.0,45.0,29.75,ENE,70,1.0,5.0,97,0.09,,,1.02,,2013-02-26 14:52:00,
2013-02-26 10:02:00,46.0,45.0,29.74,NNE,19,1.0,4.0,97,0.09,,,1.04,,2013-02-26 15:02:00,
2013-02-26 10:11:00,46.0,45.0,29.74,NNE,19,1.0,4.0,97,0.09,,,1.04,,2013-02-26 15:11:00,
2013-02-26 10:22:00,47.0,46.0,29.73,NE,55,3.0,7.0,97,0.07,,,1.04,,2013-02-26 15:22:00,
2013-02-26 10:32:00,47.0,46.0,29.71,NE,44,2.0,5.0,97,0.04,,,1.04,,2013-02-26 15:32:00,
2013-02-26 10:42:00,47.0,46.0,29.71,NE,44,2.0,5.0,97,0.04,,,1.04,,2013-02-26 15:42:00,
2013-02-26 10:52:00,48.0,47.0,29.70,East,85,3.0,5.0,97,0.05,,,1.07,,2013-02-26 15:52:00,
2013-02-26 11:01:00,48.0,47.0,29.70,East,84,1.0,2.0,97,0.03,,,1.07,,2013-02-26 16:01:00,
2013-02-26 11:11:00,48.0,47.0,29.70,East,84,1.0,2.0,97,0.03,,,1.07,,2013-02-26 16:11:00,
2013-02-26 11:22:00,49.0,48.0,29.69,ENE,58,2.0,4.0,97,0.03,,,1.07,,2013-02-26 16:22:00,
2013-02-26 11:32:00,49.0,48.0,29.69,ENE,78,0.0,2.0,97,0.03,,,1.07,,2013-02-26 16:32:00,
2013-02-26 11:42:00,49.0,48.0,29.69,ENE,78,0.0,2.0,97,0.03,,,1.07,,2013-02-26 16:42:00,
2013-02-26 11:52:00,50.0,49.0,29.67,ENE,74,3.0,5.0,97,0.01,,,1.08,,2013-02-26 16:52:00,
2013-02-26 12:01:00,51.0,50.0,29.65,NE,36,1.0,3.0,97,0.01,,,1.08,,2013-02-26 17:01:00,
2013-02-26 12:11:00,53.0,52.0,29.64,East,91,1.0,5.0,97,0.01,,,1.08,,2013-02-26 17:11:00,
2013-02-26 12:22:00,53.0,52.0,29.64,East,91,1.0,5.0,97,0.01,,,1.08,,2013-02-26 17:22:00,
2013-02-26 12:32:00,54.0,53.0,29.62,ENE,74,2.0,3.0,97,0.01,,,1.08,,2013-02-26 17:32:00,
2013-02-26 12:42:00,54.0,53.0,29.62,ENE,74,2.0,3.0,97,0.01,,,1.08,,2013-02-26 17:42:00,
2013-02-26 12:52:00,55.0,54.0,29.60,East,94,3.0,4.0,98,0.00,,,1.08,,2013-02-26 17:52:00,
2013-02-26 13:02:00,56.0,55.0,29.58,East,86,3.0,4.0,98,0.00,,,1.08,,2013-02-26 18:02:00,
2013-02-26 13:12:00,56.0,55.0,29.58,East,86,3.0,4.0,98,0.00,,,1.08,,2013-02-26 18:12:00,
2013-02-26 13:21:00,57.0,56.0,29.57,SW,235,0.0,3.0,98,0.00,,,1.08,,2013-02-26 18:21:00,
2013-02-26 13:32:00,59.0,58.0,29.57,West,280,0.0,0.0,98,0.00,,,1.08,,2013-02-26 18:32:00,
2013-02-26 13:42:00,59.0,58.0,29.57,West,280,0.0,0.0,98,0.00,,,1.08,,2013-02-26 18:42:00,
2013-02-26 13:53:00,60.0,59.0,29.59,WNW,287,1.0,2.0,98,0.00,,,1.08,,2013-02-26 18:53:00,
2013-02-26 14:01:00,60.0,59.0,29.58,WNW,285,0.0,0.0,97,0.00,,,1.08,,2013-02-26 19:01:00,
2013-02-26 14:11:00,60.0,59.0,29.58,WNW,285,0.0,0.0,97,0.00,,,1.08,,2013-02-26 19:11:00,
2013-02-26 14:22:00,62.0,61.0,29.59,West,262,0.0,3.0,98,0.00,,,1.03,,2013-02-26 19:22:00,
2013-02-26 14:32:00,64.0,63.0,29.58,West,274,0.0,2.0,98,0.00,,,1.03,,2013-02-26 19:32:00,
2013-02-26 14:42:00,64.0,63.0,29.58,West,274,0.0,2.0,98,0.00,,,1.03,,2013-02-26 19:42:00,
2013-02-26 14:52:00,66.0,64.0,29.57,SW,225,1.0,3.0,94,0.00,,,1.03,,2013-02-26 19:52:00,
2013-02-26 15:01:00,68.0,66.0,29.56,WSW,250,1.0,6.0,92,0.00,,,1.03,,2013-02-26 20:01:00,
2013-02-26 15:11:00,68.0,66.0,29.56,WSW,250,1.0,6.0,92,0.00,,,1.03,,2013-02-26 20:11:00,
2013-02-26 15:22:00,71.0,67.0,29.56,West,259,1.0,9.0,86,0.00,,,0.98,,2013-02-26 20:22:00,
2013-02-26 15:32:00,73.0,68.0,29.56,WSW,246,2.0,8.0,83,0.00,,,0.98,,2013-02-26 20:32:00,
2013-02-26 15:52:00,73.0,67.0,29.55,West,279,2.0,6.0,82,0.00,,,0.98,,2013-02-26 20:52:00,
2013-02-26 16:01:00,73.0,66.0,29.55,SSW,210,3.0,10.0,78,0.00,,,0.98,,2013-02-26 21:01:00,
2013-02-26 16:11:00,73.0,66.0,29.55,SSW,210,3.0,10.0,78,0.00,,,0.98,,2013-02-26 21:11:00,
2013-02-26 16:21:00,74.0,63.0,29.56,WSW,257,3.0,13.0,69,0.00,,,0.96,,2013-02-26 21:21:00,
2013-02-26 16:31:00,74.0,62.0,29.55,West,280,3.0,9.0,66,0.00,,,0.96,,2013-02-26 21:31:00,
2013-02-26 16:41:00,74.0,62.0,29.55,West,280,3.0,9.0,66,0.00,,,0.96,,2013-02-26 21:41:00,
2013-02-26 16:51:00,73.0,56.0,29.55,WSW,253,3.0,12.0,56,0.00,,,0.96,,2013-02-26 21:51:00,
2013-02-26 17:01:00,73.0,57.0,29.55,WNW,284,3.0,8.0,57,0.00,,,0.96,,2013-02-26 22:01:00,
2013-02-26 17:11:00,70.0,63.0,29.57,West,272,2.0,5.0,78,0.00,,,0.96,,2013-02-26 22:11:00,
2013-02-26 17:21:00,70.0,63.0,29.57,West,272,2.0,5.0,78,0.00,,,0.96,,2013-02-26 22:21:00,
2013-02-26 17:32:00,66.0,61.0,29.57,WNW,299,1.0,4.0,85,0.00,,,0.96,,2013-02-26 22:32:00,
2013-02-26 17:42:00,66.0,61.0,29.57,WNW,299,1.0,4.0,85,0.00,,,0.96,,2013-02-26 22:42:00,
2013-02-26 17:52:00,63.0,59.0,29.58,NW,316,0.0,2.0,88,0.00,,,0.96,,2013-02-26 22:52:00,
2013-02-26 18:01:00,61.0,57.0,29.59,NNW,338,2.0,4.0,88,0.00,,,0.96,,2013-02-26 23:01:00,
2013-02-26 18:11:00,61.0,57.0,29.59,NNW,338,2.0,4.0,88,0.00,,,0.96,,2013-02-26 23:11:00,
2013-02-26 18:21:00,59.0,56.0,29.60,NW,307,1.0,3.0,89,0.00,,,0.96,,2013-02-26 23:21:00,
2013-02-26 18:32:00,58.0,55.0,29.62,West,276,0.0,5.0,90,0.00,,,0.96,,2013-02-26 23:32:00,
2013-02-26 18:42:00,58.0,55.0,29.62,West,276,0.0,5.0,90,0.00,,,0.96,,2013-02-26 23:42:00,
2013-02-26 18:52:00,58.0,55.0,29.63,North,349,0.0,1.0,91,0.00,,,0.96,,2013-02-26 23:52:00,
2013-02-26 19:01:00,57.0,54.0,29.64,NNW,347,0.0,1.0,91,0.00,,,0.96,,2013-02-27 00:01:00,
2013-02-26 19:11:00,57.0,54.0,29.64,NNW,347,0.0,1.0,91,0.00,,,0.96,,2013-02-27 00:11:00,
2013-02-26 19:22:00,57.0,54.0,29.65,North,349,0.0,1.0,91,0.00,,,0.96,,2013-02-27 00:22:00,
2013-02-26 19:32:00,56.0,54.0,29.64,SW,226,1.0,2.0,92,0.00,,,0.96,,2013-02-27 00:32:00,
2013-02-26 19:42:00,56.0,54.0,29.64,SW,226,1.0,2.0,92,0.00,,,0.96,,2013-02-27 00:42:00,
2013-02-26 19:52:00,56.0,53.0,29.64,East,96,0.0,0.0,91,0.00,,,0.96,,2013-02-27 00:52:00,
2013-02-26 20:01:00,54.0,52.0,29.65,East,96,0.0,0.0,92,0.00,,,0.96,,2013-02-27 01:01:00,
2013-02-26 20:11:00,54.0,52.0,29.65,East,96,0.0,0.0,92,0.00,,,0.96,,2013-02-27 01:11:00,
2013-02-26 20:22:00,54.0,52.0,29.66,East,96,0.0,0.0,94,0.00,,,0.96,,2013-02-27 01:22:00,
2013-02-26 20:32:00,54.0,53.0,29.67,NW,321,0.0,1.0,95,0.00,,,0.96,,2013-02-27 01:32:00,
2013-02-26 20:42:00,54.0,53.0,29.67,NW,321,0.0,1.0,95,0.00,,,0.96,,2013-02-27 01:42:00,
2013-02-26 20:52:00,54.0,52.0,29.68,NW,311,0.0,2.0,94,0.00,,,0.96,,2013-02-27 01:52:00,
2013-02-26 21:01:00,53.0,51.0,29.69,NW,311,1.0,3.0,93,0.00,,,0.96,,2013-02-27 02:01:00,
2013-02-26 21:15:00,53.0,51.0,29.69,NW,311,1.0,3.0,93,0.00,,,0.96,,2013-02-27 02:15:00,
2013-02-26 21:24:00,53.0,51.0,29.69,NNW,332,0.0,2.0,93,0.00,,,0.96,,2013-02-27 02:24:00,
2013-02-26 21:32:00,53.0,51.0,29.70,WNW,283,0.0,3.0,93,0.00,,,0.96,,2013-02-27 02:32:00,
2013-02-26 21:42:00,53.0,51.0,29.70,WNW,283,0.0,3.0,93,0.00,,,0.96,,2013-02-27 02:42:00,
2013-02-26 21:52:00,52.0,50.0,29.70,West,273,0.0,1.0,93,0.00,,,0.96,,2013-02-27 02:52:00,
2013-02-26 22:02:00,52.0,50.0,29.70,West,273,0.0,0.0,93,0.00,,,0.96,,2013-02-27 03:02:00,
2013-02-26 22:11:00,52.0,50.0,29.70,West,273,0.0,0.0,93,0.00,,,0.96,,2013-02-27 03:11:00,
2013-02-26 22:22:00,52.0,50.0,29.71,WSW,253,0.0,2.0,93,0.00,,,0.96,,2013-02-27 03:22:00,
2013-02-26 22:32:00,52.0,50.0,29.72,SW,229,0.0,1.0,94,0.00,,,0.96,,2013-02-27 03:32:00,
2013-02-26 22:42:00,52.0,50.0,29.72,SW,229,0.0,1.0,94,0.00,,,0.96,,2013-02-27 03:42:00,
2013-02-26 22:52:00,52.0,50.0,29.72,West,271,0.0,1.0,94,0.00,,,0.96,,2013-02-27 03:52:00,
2013-02-26 23:01:00,52.0,50.0,29.73,SE,143,0.0,1.0,94,0.00,,,0.96,,2013-02-27 04:01:00,
2013-02-26 23:11:00,52.0,50.0,29.73,SE,143,0.0,1.0,94,0.00,,,0.96,,2013-02-27 04:11:00,
2013-02-26 23:22:00,52.0,50.0,29.74,NW,308,0.0,2.0,94,0.00,,,0.96,,2013-02-27 04:22:00,
2013-02-26 23:32:00,52.0,50.0,29.75,WNW,295,1.0,2.0,94,0.00,,,0.96,,2013-02-27 04:32:00,
2013-02-26 23:42:00,52.0,50.0,29.75,WNW,295,1.0,2.0,94,0.00,,,0.96,,2013-02-27 04:42:00,
2013-02-26 23:52:00,51.0,49.0,29.75,NW,311,1.0,13.0,93,0.00,,,0.96,,2013-02-27 04:52:00,